This demonstration page uses our WeatherBlox Daily Observations layout. Learn more.

Left ArrowRight Arrow

41.55636, -103.73856

Hourly Observations for March 24, 2017

Temp ( °F °C ) Dew Point ( °F °C ) Humidity (%) Winds ( mph kmh ) Pressure ( in mb ) Visibility ( mi km ) Precip ( " mm )
12:08 am 00:08 Cloudy 43 6 37 3 81 81 N 22 35 29.91 1013 10 16 0.00 0.00
12:53 am 00:53 Cloudy 42 5.6 37 2.8 82 82 N 18 30 29.85 1011 10 16 0.00 0.00
1:53 am 01:53 Cloudy 42 5.6 38 3.3 85 85 NNE 16 26 29.85 1011 10 16 0.00 0.03
2:13 am 02:13 Cloudy 42 5.6 38 3.3 85 85 NNE 15 24 29.94 1014 10 16 0.00 0.00
2:53 am 02:53 Cloudy 42 5.6 38 3.3 85 85 NNE 15 24 29.89 1012 10 16 0.00 0.00
3:43 am 03:43 Cloudy 42 5.6 37 2.8 82 82 N 15 24 29.97 1015 10 16 0.00 0.00
3:53 am 03:53 Cloudy 42 5.6 37 2.8 82 82 N 18 30 29.89 1012 10 16 0.00 0.00
4:33 am 04:33 Cloudy 42 5.6 36 2.2 79 79 N 20 31 29.97 1015 10 16 0.00 0.00
4:53 am 04:53 Cloudy 41 5 35 1.7 79 79 N 13 20 29.94 1014 10 16 0.00 0.00
5:01 am 05:01 Cloudy 41 5 35 1.7 79 79 N 13 20 30.03 1017 10 16 0.00 0.00
5:53 am 05:53 Cloudy 42 5.6 35 1.7 76 76 N 15 24 29.98 1015 10 16 0.00 0.00
6:53 am 06:53 Mostly Cloudy 41 5 34 1.1 76 76 N 16 26 30.04 1017 10 16 0.00 0.00
7:44 am 07:44 Cloudy 43 6 36 2 76 76 N 17 28 30.12 1020 10 16 0.00 0.00
7:53 am 07:53 Cloudy 42 5.6 35 1.7 76 76 N 14 22 30.07 1018 10 16 0.00 0.00
8:53 am 08:53 Partly Cloudy 44 6.7 35 1.7 71 71 NNW 14 22 30.09 1019 10 16 0.00 0.00
9:53 am 09:53 Sunny 47 8.3 36 2.2 66 66 N 18 30 30.08 1019 10 16 0.00 0.00
10:53 am 10:53 Mostly Sunny 51 10.6 35 1.7 54 54 N 18 30 30.08 1019 10 16 0.00 0.00
11:53 am 11:53 Partly Cloudy 55 12.8 35 1.7 47 47 NNE 21 33 30.09 1019 10 16 0.00 0.00
12:53 pm 12:53 Partly Cloudy 57 13.9 32 0 39 39 N 22 35 30.08 1019 10 16 0.00 0.00
1:53 pm 13:53 Mostly Sunny 59 15 31 -0.6 35 35 NE 16 26 30.06 1018 10 16 0.00 0.00
2:53 pm 14:53 Mostly Cloudy 56 13.3 27 -2.8 33 33 NNE 14 22 30.07 1018 10 16 0.00 0.00
3:53 pm 15:53 Cloudy 59 15 26 -3.3 28 28 NE 18 30 30.05 1018 10 16 0.00 0.00
4:53 pm 16:53 Mostly Cloudy 57 13.9 27 -2.8 32 32 NE 12 19 30.06 1018 10 16 0.00 0.00
5:53 pm 17:53 Sunny 57 13.9 27 -2.8 32 32 E 10 17 30.06 1018 10 16 0.00 0.00
6:53 pm 18:53 Sunny 52 11.1 28 -2.2 40 40 ESE 6 9 30.08 1019 10 16 0.00 0.00
7:53 pm 19:53 Clear 43 6.1 29 -1.7 58 58 E 5 7 30.11 1020 10 16 0.00 0.00
8:53 pm 20:53 Clear 39 3.9 28 -2.2 65 65 ESE 6 9 30.12 1020 10 16 0.00 0.00
9:53 pm 21:53 Clear 36 2.2 28 -2.2 73 73 E 8 13 30.12 1020 10 16 0.00 0.00
10:53 pm 22:53 Clear 35 1.7 27 -2.8 72 72 E 5 7 30.12 1020 10 16 0.00 0.00
11:53 pm 23:53 Clear 34 1.1 27 -2.8 76 76 E 5 7 30.10 1019 10 16 0.00 0.00

Powered by AerisWeather